EW3863 Ferrara IT current weather conditions

sailwx.info

Wind from 044

Air temperature 8.3° C
Dewpoint 1.9° C

Last reported at 2019-Dec-05 14:00 UTC.
Time now 2019-Dec-05 14:24 UTC

Location: N 44°49' E 011°37'.
View on Google Maps.

See reports from other nearby stations

  
Tides and Currents Weather Stations Pressure Air Temp Water Temp Dewpoint Dewpoint Depression Visibility Wind Speed Wind Dir Waves Ship Positions
date/time (UTC)wind fromknots sea level pressurealtimeterstation pressurevisibilityair tempwater tempwave heightnotes
2019-Dec-05 14:00 044 8.3
2019-Dec-05 13:55 049 8.3
2019-Dec-05 13:50 062 7.8
2019-Dec-05 13:40 065 8.3
2019-Dec-05 13:35 072 8.3
2019-Dec-05 13:30 075 8.3
2019-Dec-05 13:25 029 8.3
2019-Dec-05 13:20 029 8.3
2019-Dec-05 13:10 034 8.3
2019-Dec-05 13:05 033 7.8
2019-Dec-05 12:55 027 8.3
2019-Dec-05 12:50 038 8.3
2019-Dec-05 12:40 046 8.3
2019-Dec-05 12:35 041 8.3
2019-Dec-05 12:30 037 8.3
2019-Dec-05 12:25 037 8.3
2019-Dec-05 12:20 056 8.3
2019-Dec-05 12:15 213 8.3
2019-Dec-05 12:10 206 8.3
2019-Dec-05 12:05 206 7.8
2019-Dec-05 12:00 206 7.8
2019-Dec-05 11:55 207 7.8
2019-Dec-05 11:50 167 7.8
2019-Dec-05 11:41 167 7.2
2019-Dec-05 11:36 043 7.2
2019-Dec-05 11:31 217 7.2
2019-Dec-05 11:26 217 7.2
2019-Dec-05 11:21 220 7.2
2019-Dec-05 11:18 210 7.2
2019-Dec-05 11:10 210 7.2
2019-Dec-05 11:05 210 6.7
2019-Dec-05 11:02 089 6.7
2019-Dec-05 10:56 219 6.7
2019-Dec-05 10:51 219 6.7
2019-Dec-05 10:47 219 6.1
2019-Dec-05 10:40 219 6.1
2019-Dec-05 10:36 043 6.1
2019-Dec-05 10:32 216 6.1
2019-Dec-05 10:26 216 6.1
2019-Dec-05 10:20 216 6.1
2019-Dec-05 10:17 216 5.6
2019-Dec-05 10:11 215 5.6
2019-Dec-05 10:05 205 5.6
2019-Dec-05 10:01 205 6.1
2019-Dec-05 09:55 200 6.1
2019-Dec-05 09:50 210 6.1
2019-Dec-05 09:46 212 6.1
2019-Dec-05 09:40 210 6.1
2019-Dec-05 09:35 210 6.1
2019-Dec-05 09:33 153 6.1
2019-Dec-05 09:25 212 6.1
2019-Dec-05 09:20 212 6.1
2019-Dec-05 09:16 207 6.1
2019-Dec-05 09:10 228 6.1
2019-Dec-05 09:05 224 6.7
2019-Dec-05 09:01 224 6.7
2019-Dec-05 08:55 225 6.1
2019-Dec-05 08:50 225 6.1
2019-Dec-05 08:46 227 5.6
2019-Dec-05 08:40 227 5.6
2019-Dec-05 08:35 227 5.0
2019-Dec-05 08:31 227 5.0
2019-Dec-05 08:25 227 5.6
2019-Dec-05 08:20 228 5.0
2019-Dec-05 08:16 228 4.4
2019-Dec-05 08:10 228 4.4
2019-Dec-05 08:05 228 3.9
2019-Dec-05 08:01 228 3.3
2019-Dec-05 07:55 228 2.8
2019-Dec-05 07:50 228 2.8
2019-Dec-05 07:46 223 2.8
2019-Dec-05 07:40 215 2.2
2019-Dec-05 07:35 215 2.2
2019-Dec-05 07:30 216 2.2
2019-Dec-05 07:25 060 1.7
2019-Dec-05 07:20 060 1.7
2019-Dec-05 07:15 060 1.7
2019-Dec-05 07:10 060 1.7
2019-Dec-05 07:05 060 1.7
2019-Dec-05 07:00 060 1.7
2019-Dec-05 06:55 060 1.7
2019-Dec-05 06:50 060 1.1
2019-Dec-05 06:45 060 1.1
2019-Dec-05 06:40 062 1.1
2019-Dec-05 06:35 052 1.1
2019-Dec-05 06:31 052 1.1
2019-Dec-05 06:25 054 1.1
2019-Dec-05 06:20 204 1.1
2019-Dec-05 06:15 221 1.1
2019-Dec-05 06:10 221 1.1
2019-Dec-05 06:05 222 1.1
2019-Dec-05 06:01 221 1.1
2019-Dec-05 05:55 221 1.1
2019-Dec-05 05:50 221 1.1
2019-Dec-05 05:45 221 1.1
2019-Dec-05 05:40 221 1.1
2019-Dec-05 05:35 221 1.1
2019-Dec-05 05:25 221 1.1
2019-Dec-05 05:15 221 1.1
2019-Dec-05 05:10 221 0.6
2019-Dec-05 05:00 221 0.6
2019-Dec-05 04:55 221 0.6
2019-Dec-05 04:50 221 0.6
2019-Dec-05 04:40 221 0.6
2019-Dec-05 04:35 221 0.6
2019-Dec-05 04:30 221 1.1
2019-Dec-05 04:25 221 1.1
2019-Dec-05 04:20 221 1.1
2019-Dec-05 04:10 221 1.7
2019-Dec-05 04:05 221 1.7
2019-Dec-05 04:00 221 1.7
2019-Dec-05 03:55 219 1.7
2019-Dec-05 03:50 220 1.7
2019-Dec-05 03:45 219 1.7
2019-Dec-05 03:40 219 1.7
2019-Dec-05 03:35 219 1.7
2019-Dec-05 03:30 219 1.7
2019-Dec-05 03:25 219 1.7
2019-Dec-05 03:20 219 1.7
2019-Dec-05 03:15 219 1.7
2019-Dec-05 03:10 219 1.7
2019-Dec-05 03:05 219 1.7
2019-Dec-05 03:00 219 1.7
2019-Dec-05 02:55 219 1.7
2019-Dec-05 02:47 219 1.7
2019-Dec-05 02:41 219 1.7
2019-Dec-05 02:36 219 1.7
2019-Dec-05 02:32 219 1.7
2019-Dec-05 02:26 209 1.7
2019-Dec-05 02:20 209 1.7
2019-Dec-05 02:16 209 1.7
2019-Dec-05 02:11 209 1.7
2019-Dec-05 02:05 209 1.7
2019-Dec-05 02:02 209 1.7
2019-Dec-05 01:55 216 1.7
2019-Dec-05 01:51 216 1.7
2019-Dec-05 01:46 216 1.7
2019-Dec-05 01:40 216 1.7
2019-Dec-05 01:35 227 1.7
2019-Dec-05 01:32 227 1.7
2019-Dec-05 01:26 227 1.7
2019-Dec-05 01:21 227 1.7
2019-Dec-05 01:16 227 2.2
2019-Dec-05 01:11 227 2.2
2019-Dec-05 01:06 227 2.2
2019-Dec-05 01:01 227 2.2
2019-Dec-05 00:55 227 2.2
2019-Dec-05 00:50 229 2.2
2019-Dec-05 00:47 231 2.2
2019-Dec-05 00:40 206 2.2
2019-Dec-05 00:35 225 2.2
2019-Dec-05 00:31 226 2.2
2019-Dec-05 00:25 226 2.2
2019-Dec-05 00:20 226 2.2
2019-Dec-05 00:16 226 2.2
2019-Dec-05 00:10 226 2.2
2019-Dec-05 00:05 226 2.2
2019-Dec-05 00:01 225 2.2
2019-Dec-04 23:55 225 2.2
2019-Dec-04 23:50 226 2.2
2019-Dec-04 23:46 226 2.2
2019-Dec-04 23:40 226 2.2
2019-Dec-04 23:35 226 2.2
2019-Dec-04 23:32 226 2.2
2019-Dec-04 23:25 226 2.2
2019-Dec-04 23:20 226 2.2
2019-Dec-04 23:16 226 2.2
2019-Dec-04 23:10 226 2.2
2019-Dec-04 23:05 225 2.2
2019-Dec-04 23:03 226 2.2
2019-Dec-04 22:55 221 2.2
2019-Dec-04 22:50 213 2.2
2019-Dec-04 22:46 210 2.2
2019-Dec-04 22:40 206 1.7
2019-Dec-04 22:35 189 1.7
2019-Dec-04 22:31 225 1.7
2019-Dec-04 22:25 225 1.7
2019-Dec-04 22:20 225 1.7
2019-Dec-04 22:16 204 1.7
2019-Dec-04 22:10 204 1.7
2019-Dec-04 22:05 217 1.7
2019-Dec-04 22:00 217 1.7
2019-Dec-04 21:55 217 1.7
2019-Dec-04 21:50 217 1.7
2019-Dec-04 21:46 217 2.2
2019-Dec-04 21:40 217 2.2
2019-Dec-04 21:35 217 2.2
2019-Dec-04 21:31 217 2.2
2019-Dec-04 21:25 217 2.2
2019-Dec-04 21:20 217 2.2
2019-Dec-04 21:16 217 2.8
2019-Dec-04 21:10 217 2.8
2019-Dec-04 21:05 217 2.8
2019-Dec-04 21:01 217 2.8
2019-Dec-04 20:55 217 2.8
2019-Dec-04 20:50 217 2.8
2019-Dec-04 20:46 217 2.8
2019-Dec-04 20:40 217 2.8
2019-Dec-04 20:35 217 2.8
2019-Dec-04 20:30 217 2.8
2019-Dec-04 20:25 217 2.8
2019-Dec-04 20:20 217 2.8
2019-Dec-04 20:16 217 2.8
2019-Dec-04 20:10 047 2.2
2019-Dec-04 20:05 048 2.2
2019-Dec-04 20:01 048 2.8
2019-Dec-04 19:55 048 2.8
2019-Dec-04 19:50 048 2.8
2019-Dec-04 19:46 048 2.8
2019-Dec-04 19:40 048 2.8
2019-Dec-04 19:35 048 2.8
2019-Dec-04 19:31 048 2.8
2019-Dec-04 19:25 048 3.3
2019-Dec-04 19:20 048 3.3
2019-Dec-04 19:16 048 3.3
2019-Dec-04 19:10 048 3.3
2019-Dec-04 19:05 048 3.3
2019-Dec-04 19:01 048 3.3
2019-Dec-04 18:55 048 3.3
2019-Dec-04 18:50 048 3.9
2019-Dec-04 18:45 048 3.9
2019-Dec-04 18:40 048 3.9
2019-Dec-04 18:35 048 3.9
2019-Dec-04 18:30 048 3.9
2019-Dec-04 18:25 048 3.9
2019-Dec-04 18:20 048 3.9
2019-Dec-04 18:17 048 3.9
2019-Dec-04 18:10 048 3.9
2019-Dec-04 18:05 048 3.9
2019-Dec-04 18:00 048 4.4
2019-Dec-04 17:55 048 4.4
2019-Dec-04 17:50 048 4.4
2019-Dec-04 17:46 048 4.4
2019-Dec-04 17:40 048 4.4
2019-Dec-04 17:35 048 4.4
2019-Dec-04 17:30 048 5.0
2019-Dec-04 17:25 047 5.0
2019-Dec-04 17:20 048 5.0
2019-Dec-04 17:16 048 5.0
2019-Dec-04 17:10 048 5.0
2019-Dec-04 17:05 048 5.6
2019-Dec-04 17:01 048 5.6
2019-Dec-04 16:55 048 5.6
2019-Dec-04 16:50 048 5.6
2019-Dec-04 16:45 048 5.6
2019-Dec-04 16:40 048 6.1
2019-Dec-04 16:35 048 6.1
2019-Dec-04 16:30 048 6.1
2019-Dec-04 16:25 048 6.1
2019-Dec-04 16:20 048 6.1
2019-Dec-04 16:15 048 6.1
2019-Dec-04 16:10 048 6.1
2019-Dec-04 16:06 048 6.1
2019-Dec-04 16:01 048 6.7
2019-Dec-04 15:55 048 6.7
2019-Dec-04 15:50 047 6.7
2019-Dec-04 15:40 048 6.7
2019-Dec-04 15:35 048 7.2
2019-Dec-04 15:30 048 7.2
2019-Dec-04 15:25 041 7.2
2019-Dec-04 15:20 041 7.2
2019-Dec-04 15:15 041 7.2
2019-Dec-04 15:10 041 7.2
2019-Dec-04 15:05 044 7.2
2019-Dec-04 14:55 055 7.8
2019-Dec-04 14:50 049 7.8
2019-Dec-04 14:45 041 7.8
2019-Dec-04 14:40 040 7.8
2019-Dec-04 14:35 049 7.8
2019-Dec-04 14:30 024 7.8
2019-Dec-04 14:25 023 7.8
2019-Dec-04 14:20 013 7.8
2019-Dec-04 14:15 046 8.3
2019-Dec-04 14:10 024 8.3
2019-Dec-04 14:05 064 8.3
2019-Dec-04 13:56 042 8.3
2019-Dec-04 13:51 045 8.3
2019-Dec-04 13:47 037 8.3
2019-Dec-04 13:40 032 8.3
2019-Dec-04 13:35 028 8.3
2019-Dec-04 13:31 015 8.3
2019-Dec-04 13:26 031 8.3
2019-Dec-04 13:21 027 8.3
2019-Dec-04 13:17 026 8.3
2019-Dec-04 13:10 035 8.3
2019-Dec-04 13:05 041 8.3
2019-Dec-04 13:01 045 8.3
2019-Dec-04 12:55 036 8.3
2019-Dec-04 12:50 053 8.9
2019-Dec-04 12:46 052 8.3
2019-Dec-04 12:40 037 0 gusting 5 8.3
2019-Dec-04 12:36 024 8.9
2019-Dec-04 12:32 023 8.9
2019-Dec-04 12:25 046 8.9
2019-Dec-04 12:20 053 8.9
2019-Dec-04 12:17 039 8.9
2019-Dec-04 12:10 026 8.9
2019-Dec-04 12:05 026 8.3
2019-Dec-04 12:01 035 8.3
2019-Dec-04 11:55 029 8.3
2019-Dec-04 11:50 013 8.3
2019-Dec-04 11:46 038 0 gusting 5 8.3
2019-Dec-04 11:40 108 0 gusting 5 8.3
2019-Dec-04 11:35 010 8.3
2019-Dec-04 11:32 036 8.3
2019-Dec-04 11:25 026 8.3
2019-Dec-04 11:20 025 0 gusting 5 8.3
2019-Dec-04 11:15 068 8.3
2019-Dec-04 11:10 027 8.3
2019-Dec-04 11:05 045 8.3
2019-Dec-04 11:01 037 8.3
2019-Dec-04 10:55 016 8.3
2019-Dec-04 10:50 041 0 gusting 5 8.3
2019-Dec-04 10:46 053 0 gusting 5 7.8
2019-Dec-04 10:40 029 7.8
2019-Dec-04 10:35 053 7.8
2019-Dec-04 10:31 030 0 gusting 5 7.8
2019-Dec-04 10:25 033 7.8
2019-Dec-04 10:20 359 0 gusting 5 7.8
2019-Dec-04 10:17 027 0 gusting 5 7.8
2019-Dec-04 10:10 049 7.2
2019-Dec-04 10:05 056 7.2
2019-Dec-04 10:01 032 7.2
2019-Dec-04 09:55 060 6.7
2019-Dec-04 09:50 046 6.7
2019-Dec-04 09:45 006 6.7
2019-Dec-04 09:40 040 6.1
2019-Dec-04 09:35 039 6.1
2019-Dec-04 09:32 026 6.1
2019-Dec-04 09:25 029 6.1
2019-Dec-04 09:20 034 5.6
2019-Dec-04 09:15 024 0 gusting 6 5.6
2019-Dec-04 09:10 032 5.6
2019-Dec-04 09:00 035 5.0
2019-Dec-04 08:55 030 5.0
2019-Dec-04 08:50 047 5.0
2019-Dec-04 08:40 042 5.0
2019-Dec-04 08:35 028 4.4
2019-Dec-04 08:25 039 4.4
2019-Dec-04 08:20 016 4.4
2019-Dec-04 08:15 038 4.4
2019-Dec-04 08:10 034 0 gusting 4 4.4
2019-Dec-04 08:05 036 4.4
2019-Dec-04 07:55 063 0 gusting 3 4.4
2019-Dec-04 07:50 032 0 gusting 4 3.9
2019-Dec-04 07:45 348 0 gusting 3 3.9
2019-Dec-04 07:40 039 0 gusting 5 3.9
2019-Dec-04 07:35 345 0 gusting 5 3.9
2019-Dec-04 07:25 024 1 gusting 5 3.3
2019-Dec-04 07:20 027 0 gusting 5 3.3
2019-Dec-04 07:10 039 0 gusting 4 3.3
2019-Dec-04 07:05 039 1 gusting 4 3.3
2019-Dec-04 07:00 019 1 gusting 4 2.8
2019-Dec-04 06:55 011 0 gusting 2 2.8
2019-Dec-04 06:50 048 0 gusting 2 2.8
2019-Dec-04 06:40 043 0 gusting 4 2.8
2019-Dec-04 06:35 046 0 gusting 2 2.8
2019-Dec-04 06:30 009 2.8
2019-Dec-04 06:25 022 2.8
2019-Dec-04 06:20 027 2.8
2019-Dec-04 06:15 019 2.8
2019-Dec-04 06:10 027 2.2
2019-Dec-04 06:05 036 2.2
2019-Dec-04 05:56 043 1.7
2019-Dec-04 05:51 043 1.7
2019-Dec-04 05:47 043 1.7
2019-Dec-04 05:41 043 1.7
2019-Dec-04 05:35 043 1.7
2019-Dec-04 05:31 043 1.7
2019-Dec-04 05:26 043 2.2
2019-Dec-04 05:20 043 2.2
2019-Dec-04 05:17 043 2.2
2019-Dec-04 05:10 043 2.2
2019-Dec-04 05:05 043 2.2
2019-Dec-04 05:01 043 2.2
2019-Dec-04 04:55 043 2.8
2019-Dec-04 04:50 043 2.8
2019-Dec-04 04:46 043 2.8
2019-Dec-04 04:40 043 2.8
2019-Dec-04 04:35 043 2.8
2019-Dec-04 04:32 031 2.8
2019-Dec-04 04:25 031 3.3
2019-Dec-04 04:20 031 3.3
2019-Dec-04 04:18 031 3.3
2019-Dec-04 04:10 031 3.3
2019-Dec-04 04:05 030 3.3
2019-Dec-04 04:01 041 3.3
2019-Dec-04 03:55 017 3.3
2019-Dec-04 03:50 041 3.3
2019-Dec-04 03:46 027 3.3
2019-Dec-04 03:40 039 3.3
2019-Dec-04 03:35 022 3.3
2019-Dec-04 03:31 043 3.3
2019-Dec-04 03:25 041 3.3
2019-Dec-04 03:20 039 3.3
2019-Dec-04 03:17 033 3.3
2019-Dec-04 03:10 033 3.3
2019-Dec-04 03:05 037 3.3
2019-Dec-04 03:01 033 3.3
2019-Dec-04 02:55 043 3.3
2019-Dec-04 02:50 039 3.3
2019-Dec-04 02:46 034 3.3
2019-Dec-04 02:41 033 3.3
2019-Dec-04 02:35 025 3.3
2019-Dec-04 02:31 016 3.3
2019-Dec-04 02:25 030 3.3
2019-Dec-04 02:20 031 3.3
2019-Dec-04 02:16 030 3.3
2019-Dec-04 02:10 033 3.3
2019-Dec-04 02:05 037 3.9
2019-Dec-04 02:01 040 3.9
2019-Dec-04 01:55 040 3.9
2019-Dec-04 01:50 026 3.9
2019-Dec-04 01:46 035 3.9
2019-Dec-04 01:40 020 3.9
2019-Dec-04 01:31 020 3.9
2019-Dec-04 01:25 031 3.9
2019-Dec-04 01:20 041 4.4
2019-Dec-04 01:16 032 4.4
2019-Dec-04 01:10 031 0 gusting 5 4.4
2019-Dec-04 01:05 030 1 gusting 5 4.4
2019-Dec-04 01:00 023 4.4
2019-Dec-04 00:55 027 4.4
2019-Dec-04 00:50 011 4.4
2019-Dec-04 00:45 056 4.4
2019-Dec-04 00:40 037 4.4
2019-Dec-04 00:35 025 4.4
2019-Dec-04 00:31 027 0 gusting 3 4.4
2019-Dec-04 00:25 039 4.4
2019-Dec-04 00:20 039 0 gusting 3 4.4
2019-Dec-04 00:15 044 0 gusting 4 4.4
2019-Dec-04 00:10 041 0 gusting 4 4.4
2019-Dec-04 00:05 039 4.4
2019-Dec-03 23:55 044 4.4
2019-Dec-03 23:50 049 0 gusting 2 4.4
2019-Dec-03 23:45 024 4.4
2019-Dec-03 23:40 039 4.4
2019-Dec-03 23:35 037 4.4
2019-Dec-03 23:30 037 4.4
2019-Dec-03 23:25 036 4.4
2019-Dec-03 23:20 024 4.4
2019-Dec-03 23:15 034 5.0
2019-Dec-03 23:10 028 5.0
2019-Dec-03 23:05 033 5.0
2019-Dec-03 22:55 028 1 gusting 4 5.0
2019-Dec-03 22:50 024 0 gusting 4 5.0
2019-Dec-03 22:45 054 1 gusting 5 5.0
2019-Dec-03 22:40 041 1 gusting 5 5.0
2019-Dec-03 22:35 015 1 gusting 6 5.0
2019-Dec-03 22:30 016 1 gusting 6 5.0
2019-Dec-03 22:25 044 1 gusting 6 5.0
2019-Dec-03 22:20 030 0 gusting 6 5.0
2019-Dec-03 22:15 028 0 gusting 4 5.0
2019-Dec-03 22:10 032 0 gusting 4 5.0
2019-Dec-03 22:05 034 5.0
2019-Dec-03 22:00 018 0 gusting 4 5.0
2019-Dec-03 21:55 037 0 gusting 3 5.0
2019-Dec-03 21:50 028 0 gusting 3 5.0
2019-Dec-03 21:41 023 5.0
2019-Dec-03 21:36 037 5.0
2019-Dec-03 21:33 019 5.0
2019-Dec-03 21:26 018 0 gusting 3 5.0
2019-Dec-03 21:20 020 5.0
2019-Dec-03 21:17 049 0 gusting 4 5.0
2019-Dec-03 21:11 025 5.0
2019-Dec-03 21:05 032 5.0
2019-Dec-03 21:02 039 5.0
2019-Dec-03 20:55 053 5.0
2019-Dec-03 20:50 036 5.0
2019-Dec-03 20:46 042 5.6
2019-Dec-03 20:40 028 5.6
2019-Dec-03 20:35 025 5.6
2019-Dec-03 20:32 033 5.6
2019-Dec-03 20:26 037 5.6
2019-Dec-03 20:20 030 5.6
2019-Dec-03 20:16 030 5.6
2019-Dec-03 20:10 030 5.6
2019-Dec-03 20:05 026 5.6
2019-Dec-03 20:02 027 5.6
2019-Dec-03 19:56 035 5.6
2019-Dec-03 19:50 044 5.6
2019-Dec-03 19:46 032 5.6
2019-Dec-03 19:40 029 5.6
2019-Dec-03 19:35 040 5.6
2019-Dec-03 19:32 001 5.6
2019-Dec-03 19:25 027 5.6
2019-Dec-03 19:20 028 5.6
2019-Dec-03 19:18 034 5.6
2019-Dec-03 19:10 033 6.1
2019-Dec-03 19:05 028 6.1
2019-Dec-03 19:01 040 6.1
2019-Dec-03 18:55 043 6.1
2019-Dec-03 18:50 025 6.1
2019-Dec-03 18:46 033 6.1
2019-Dec-03 18:40 046 6.1
2019-Dec-03 18:35 041 6.1
2019-Dec-03 18:31 036 6.1
2019-Dec-03 18:25 034 6.1
2019-Dec-03 18:20 032 6.1
2019-Dec-03 18:16 020 6.1
2019-Dec-03 18:10 056 6.7
2019-Dec-03 18:05 033 6.7
2019-Dec-03 18:01 025 6.7
2019-Dec-03 17:55 027 1 gusting 5 6.7
2019-Dec-03 17:50 053 6.7
2019-Dec-03 17:47 063 6.7
2019-Dec-03 17:40 021 6.7
2019-Dec-03 17:35 044 6.7
2019-Dec-03 17:30 036 6.7
2019-Dec-03 17:25 004 6.7
2019-Dec-03 17:20 030 6.7
2019-Dec-03 17:16 041 7.2
2019-Dec-03 17:10 032 7.2
2019-Dec-03 17:05 056 7.2
2019-Dec-03 17:01 047 7.2
2019-Dec-03 16:55 036 7.2
2019-Dec-03 16:50 360 7.2
2019-Dec-03 16:45 001 7.2
2019-Dec-03 16:40 019 7.2
2019-Dec-03 16:35 028 7.8
2019-Dec-03 16:31 037 7.8
2019-Dec-03 16:25 034 7.8
2019-Dec-03 16:20 037 7.8
2019-Dec-03 16:15 038 7.8
2019-Dec-03 16:10 027 7.8
2019-Dec-03 16:05 032 7.8
2019-Dec-03 16:00 040 8.3
2019-Dec-03 15:55 030 8.3
2019-Dec-03 15:50 047 8.3
2019-Dec-03 15:45 045 8.3
2019-Dec-03 15:40 025 8.3
2019-Dec-03 15:35 044 8.3
2019-Dec-03 15:30 056 8.9
2019-Dec-03 15:25 020 8.9
2019-Dec-03 15:20 030 8.9
2019-Dec-03 15:16 037 0 gusting 5 8.9
2019-Dec-03 15:10 034 0 gusting 5 9.4
2019-Dec-03 15:05 029 0 gusting 7 9.4
2019-Dec-03 15:01 013 0 gusting 7 9.4
2019-Dec-03 14:55 044 9.4
2019-Dec-03 14:50 037 1 gusting 6 9.4
2019-Dec-03 14:45 011 9.4
2019-Dec-03 14:40 033 0 gusting 5 9.4
2019-Dec-03 14:35 030 9.4
2019-Dec-03 14:30 038 9.4
2019-Dec-03 14:25 035 10.0
2019-Dec-03 14:20 039 2 gusting 8 10.0
2019-Dec-03 14:16 048 0 gusting 8 10.0
2019-Dec-03 14:10 015 10.0
2019-Dec-03 14:05 034 10.0
2019-Dec-03 14:00 035 4 gusting 9 10.0